W0BJ Weather Reports


Display with metric or nautical units.
time (UTC)temp
F
wind
direction
speed
MPH
gust
MPH
rain 1hr
in
rain 24hr
in
rain mn
in
humidity
%
barometer
mb
20260510230347 69 341 0.0 3.0 0.00 0.19 0.01 33 1022.1
20260510225321 70 344 2.0 5.0 0.00 0.19 0.01 33 1022.3
20260510224347 71 0 3.0 3.0 0.00 0.19 0.01 31 1022.2
20260510223820 71 315 3.0 6.0 0.00 0.19 0.01 32 1022.1
20260510223346 71 302 5.0 6.0 0.00 0.19 0.01 32 1022.1
20260510222321 71 18 1.0 2.0 0.00 0.19 0.01 32 1022.2
20260510221346 71 347 6.0 7.0 0.00 0.19 0.01 30 1022.1
20260510220820 71 288 2.0 5.0 0.00 0.19 0.01 33 1022.1
20260510220346 71 12 2.0 5.0 0.00 0.19 0.01 32 1022.2
20260510215321 71 27 2.0 3.0 0.00 0.19 0.01 32 1022.2
20260510214347 71 0 5.0 7.0 0.00 0.19 0.01 31 1022.2
20260510213821 71 0 2.0 5.0 0.00 0.19 0.01 31 1022.2
20260510213346 72 325 5.0 8.0 0.00 0.19 0.01 31 1022.2
20260510212320 74 310 1.0 7.0 0.00 0.19 0.01 32 1022.3
20260510211348 74 278 0.0 0.0 0.00 0.19 0.01 33 1022.3
20260510210822 74 309 3.0 3.0 0.00 0.19 0.01 33 1022.3
20260510210347 73 354 2.0 2.0 0.00 0.19 0.01 32 1022.4
20260510205321 75 272 0.0 0.0 0.00 0.19 0.01 33 1022.4
20260510204346 74 320 0.0 3.0 0.00 0.19 0.01 33 1022.3
20260510203820 74 281 0.0 0.0 0.00 0.19 0.01 33 1022.3
20260510203346 75 291 1.0 3.0 0.00 0.19 0.01 33 1022.2
20260510202320 73 286 1.0 2.0 0.00 0.19 0.01 33 1022.2
20260510201346 73 277 0.0 0.0 0.00 0.19 0.01 31 1022.2
20260510200820 73 275 5.0 6.0 0.00 0.19 0.01 33 1022.1
20260510200348 72 261 0.0 6.0 0.00 0.19 0.01 33 1022.1
20260510195321 72 359 2.0 5.0 0.00 0.19 0.01 33 1022.2
20260510194347 73 357 6.0 10.0 0.00 0.19 0.01 33 1022.4
20260510193820 72 296 6.0 8.0 0.00 0.19 0.01 33 1022.4
20260510193346 72 306 5.0 8.0 0.00 0.19 0.01 33 1022.4
20260510192322 71 341 3.0 6.0 0.00 0.19 0.01 33 1022.5
20260510191347 70 0 5.0 5.0 0.00 0.19 0.01 33 1022.5
20260510190821 70 283 1.0 2.0 0.00 0.19 0.01 35 1022.4
20260510190347 70 294 3.0 5.0 0.00 0.19 0.01 34 1022.2
20260510185320 70 357 1.0 0.0 0.00 0.19 0.01 33 1022.3
20260510184348 70 320 5.0 6.0 0.00 0.19 0.01 34 1022.3
20260510183822 71 22 7.0 13.0 0.00 0.19 0.01 32 1022.4
20260510183347 72 292 1.0 3.0 0.00 0.19 0.01 35 1022.3
20260510182321 70 335 6.0 7.0 0.00 0.19 0.01 38 1022.1
20260510181347 70 10 5.0 9.0 0.00 0.19 0.01 36 1022.0
20260510180821 70 356 3.0 7.0 0.00 0.19 0.01 35 1022.1
20260510180346 69 3 5.0 10.0 0.00 0.19 0.01 36 1022.1
20260510175320 68 14 2.0 5.0 0.00 0.19 0.01 40 1022.2
20260510174348 68 344 7.0 9.0 0.00 0.19 0.01 39 1022.1
20260510173822 68 359 0.0 0.0 0.00 0.19 0.01 40 1022.2
20260510173347 68 355 1.0 5.0 0.00 0.19 0.01 40 1022.2
20260510172321 69 352 2.0 2.0 0.00 0.19 0.01 39 1022.5
20260510171346 68 356 2.0 6.0 0.00 0.19 0.01 41 1022.5
20260510170820 68 343 2.0 6.0 0.00 0.19 0.01 42 1022.5
20260510170346 66 299 6.0 6.0 0.00 0.19 0.01 42 1022.6
20260510165321 65 348 0.0 0.0 0.00 0.19 0.01 46 1022.7
20260510164347 65 14 1.0 9.0 0.00 0.19 0.01 44 1022.6
20260510163821 65 1 6.0 7.0 0.00 0.19 0.01 43 1022.6
20260510163346 65 337 1.0 6.0 0.00 0.19 0.01 45 1022.7
20260510162320 65 351 2.0 9.0 0.00 0.19 0.01 45 1022.8
20260510161346 65 358 0.0 6.0 0.00 0.19 0.01 47 1022.8
20260510160822 65 10 3.0 9.0 0.00 0.19 0.01 46 1022.8
20260510160348 65 274 2.0 3.0 0.00 0.19 0.01 49 1023.0
20260510155321 65 336 2.0 5.0 0.00 0.19 0.01 51 1022.9
20260510154348 63 297 5.0 7.0 0.00 0.19 0.01 54 1022.8
20260510153822 63 358 1.0 5.0 0.00 0.19 0.01 50 1022.6
20260510153347 64 3 6.0 7.0 0.00 0.19 0.01 50 1022.6
20260510152321 63 359 6.0 7.0 0.00 0.19 0.01 50 1022.4
20260510151347 64 340 2.0 6.0 0.00 0.19 0.01 51 1022.3
20260510150820 64 357 3.0 5.0 0.00 0.19 0.01 50 1022.1
20260510150346 64 292 6.0 9.0 0.00 0.19 0.01 53 1022.1
20260510145320 64 298 2.0 6.0 0.00 0.19 0.01 53 1022.2
20260510144346 62 337 3.0 3.0 0.00 0.19 0.01 52 1022.0
20260510143822 62 38 5.0 6.0 0.00 0.19 0.01 51 1021.7
20260510143347 62 347 5.0 7.0 0.00 0.19 0.01 51 1021.8
20260510142321 62 341 5.0 8.0 0.00 0.19 0.01 53 1021.8
20260510141348 62 3 5.0 8.0 0.00 0.19 0.01 53 1021.7
20260510140820 61 1 3.0 8.0 0.00 0.19 0.01 53 1021.6
20260510140346 62 15 0.0 2.0 0.00 0.19 0.01 53 1021.4
20260510135322 62 346 5.0 7.0 0.00 0.19 0.01 54 1021.5
20260510134347 62 25 2.0 1.0 0.00 0.19 0.01 56 1021.3
20260510133821 61 25 0.0 0.0 0.00 0.19 0.01 58 1021.3
20260510133347 61 2 5.0 8.0 0.00 0.19 0.01 57 1021.5
20260510132320 61 14 6.0 9.0 0.00 0.19 0.01 57 1021.5
20260510131346 60 354 1.0 1.0 0.00 0.19 0.01 60 1021.2
20260510130822 60 12 2.0 2.0 0.00 0.19 0.01 61 1021.1
20260510130347 60 359 0.0 3.0 0.00 0.19 0.01 64 1021.0
20260510125321 59 12 3.0 5.0 0.00 0.19 0.01 64 1020.9
20260510124346 59 0 0.0 0.0 0.00 0.19 0.01 68 1020.9
20260510123820 59 0 0.0 0.0 0.00 0.19 0.01 68 1020.6
20260510123346 59 0 0.0 3.0 0.00 0.19 0.01 67 1020.4
20260510122322 60 0 1.0 0.0 0.00 0.19 0.01 76 1020.3
20260510121347 59 0 0.0 0.0 0.00 0.19 0.01 77 1020.4
20260510120821 58 0 0.0 0.0 0.00 0.19 0.01 77 1020.3
20260510120347 58 0 0.0 0.0 0.00 0.19 0.01 83 1020.2
20260510115320 57 0 0.0 0.0 0.00 0.19 0.01 84 1019.7
20260510114348 56 0 0.0 0.0 0.00 0.19 0.01 88 1019.5
20260510113821 55 0 0.0 0.0 0.00 0.19 0.01 88 1019.5
20260510113347 55 0 0.0 0.0 0.00 0.19 0.01 90 1019.4
20260510112321 54 0 0.0 0.0 0.00 0.19 0.01 91 1019.1
20260510111346 54 0 0.0 0.0 0.00 0.19 0.01 91 1018.8
20260510110822 54 0 0.0 0.0 0.00 0.19 0.01 91 1018.8
20260510110348 54 0 0.0 0.0 0.00 0.19 0.01 92 1018.7
20260510105321 55 0 0.0 0.0 0.00 0.19 0.01 92 1018.4
20260510104347 55 0 0.0 0.0 0.00 0.19 0.01 92 1018.4
20260510103820 55 0 0.0 0.0 0.00 0.19 0.01 92 1018.4
20260510103346 55 0 0.0 0.0 0.00 0.19 0.01 94 1018.4
20260510102322 56 0 0.0 0.0 0.01 0.19 0.01 93 1018.1
20260510101347 56 0 0.0 0.0 0.01 0.19 0.01 93 1017.7
20260510100821 56 0 0.0 0.0 0.01 0.19 0.01 93 1017.9
20260510100347 56 0 0.0 0.0 0.01 0.19 0.01 93 1017.7
20260510095320 57 0 0.0 0.0 0.01 0.19 0.01 93 1017.8
20260510094346 57 0 0.0 0.0 0.01 0.19 0.01 93 1017.6
20260510093822 57 0 0.0 0.0 0.01 0.19 0.01 93 1017.5
20260510093347 57 0 0.0 0.0 0.01 0.19 0.01 93 1017.4
20260510092321 57 0 0.0 0.0 0.00 0.18 0.00 93 1017.4
20260510091346 57 0 0.0 0.0 0.00 0.18 0.00 93 1017.3
20260510090820 57 0 0.0 0.0 0.00 0.18 0.00 92 1017.1
20260510090348 57 0 0.0 0.0 0.00 0.18 0.00 93 1017.1
20260510085321 57 0 0.0 0.0 0.00 0.18 0.00 93 1016.9
20260510084346 57 0 0.0 0.0 0.00 0.18 0.00 92 1016.6
20260510083820 57 0 0.0 0.0 0.00 0.18 0.00 92 1016.6
20260510083348 57 0 0.0 0.0 0.00 0.18 0.00 91 1016.4
20260510082321 58 0 0.0 0.0 0.00 0.18 0.00 91 1016.3
20260510081347 58 0 0.0 0.0 0.00 0.18 0.00 91 1016.2
20260510080820 58 0 0.0 0.0 0.00 0.18 0.00 91 1015.9
20260510080346 58 0 0.0 0.0 0.00 0.18 0.00 90 1015.9
20260510075321 59 0 0.0 0.0 0.00 0.18 0.00 86 1015.6
20260510074347 60 0 0.0 0.0 0.00 0.18 0.00 87 1015.6
20260510073821 60 0 0.0 0.0 0.00 0.18 0.00 86 1015.9
20260510073346 60 0 0.0 0.0 0.00 0.18 0.00 87 1015.6
20260510072320 60 0 0.0 0.0 0.00 0.18 0.00 87 1015.3
20260510071348 60 0 0.0 0.0 0.00 0.18 0.00 87 1015.3
20260510070821 60 0 0.0 0.0 0.00 0.18 0.00 86 1015.4
20260510070347 60 0 0.0 0.0 0.00 0.18 0.00 90 1015.6
20260510065320 60 0 0.0 0.0 0.00 0.18 0.00 91 1015.7
20260510064348 60 0 0.0 0.0 0.00 0.18 0.00 90 1015.5
20260510063822 60 0 0.0 0.0 0.00 0.18 0.00 90 1015.4
20260510063347 60 0 0.0 0.0 0.00 0.19 0.00 90 1015.4
20260510062321 60 0 0.0 0.0 0.00 0.19 0.00 91 1015.5
20260510061346 61 0 0.0 0.0 0.00 0.19 0.00 90 1015.5
20260510060822 60 0 0.0 0.0 0.00 0.19 0.00 90 1015.7
20260510060348 61 0 0.0 0.0 0.00 0.19 0.00 90 1015.5
20260510055321 61 0 3.0 5.0 0.00 0.19 0.00 90 1015.1
20260510054346 61 6 1.0 0.0 0.00 0.19 0.00 91 1015.3
20260510053820 61 6 0.0 0.0 0.00 0.19 0.00 91 1015.1
20260510053346 61 6 0.0 0.0 0.00 0.19 0.00 90 1015.2
20260510052321 61 5 0.0 0.0 0.00 0.19 0.00 89 1015.0
20260510051347 61 1 0.0 0.0 0.00 0.19 0.00 89 1015.0
20260510050822 61 5 1.0 3.0 0.00 0.19 0.00 89 1014.9
20260510050347 61 18 5.0 6.0 0.00 0.19 0.00 89 1015.0
20260510045321 61 28 0.0 0.0 0.05 0.19 0.19 89 1014.7
20260510044346 61 72 0.0 3.0 0.07 0.19 0.19 90 1014.5
20260510043820 61 72 0.0 0.0 0.09 0.19 0.19 90 1014.0
20260510043348 61 72 0.0 0.0 0.11 0.19 0.19 89 1014.2
20260510042321 61 72 0.0 0.0 0.14 0.18 0.18 90 1014.8
20260510041347 61 20 2.0 6.0 0.15 0.17 0.17 89 1015.4
20260510040821 61 31 2.0 6.0 0.15 0.16 0.16 89 1015.1
20260510040346 61 31 2.0 5.0 0.14 0.15 0.15 88 1015.0
20260510035322 61 13 9.0 10.0 0.13 0.14 0.14 79 1015.6
20260510034347 62 0 1.0 3.0 0.11 0.12 0.12 65 1015.9
20260510033821 62 343 2.0 9.0 0.09 0.10 0.10 74 1015.9
20260510033347 63 342 5.0 8.0 0.07 0.08 0.08 81 1016.0
20260510032320 64 294 3.0 8.0 0.03 0.04 0.04 74 1016.1
20260510031346 66 296 10.0 14.0 0.01 0.04 0.02 61 1015.4
20260510030822 67 293 5.0 20.0 0.00 0.04 0.01 55 1015.3
20260510030348 67 290 9.0 14.0 0.00 0.05 0.01 54 1014.7
20260510025321 67 323 0.0 0.0 0.00 0.07 0.01 53 1012.4
20260510024346 67 323 0.0 0.0 0.00 0.08 0.01 52 1012.2
20260510023823 67 323 0.0 0.0 0.00 0.10 0.01 53 1012.2
20260510023820 67 323 0.0 0.0 0.00 0.10 0.01 53 1012.2
20260510023346 67 323 0.0 0.0 0.00 0.12 0.01 54 1012.1
20260510022321 67 323 0.0 0.0 0.00 0.16 0.01 54 1012.0
20260510021347 67 323 0.0 0.0 0.00 0.21 0.01 50 1011.8
20260510020824 67 323 0.0 0.0 3.00 0.24 0.01 50 1011.8
20260510020820 67 323 0.0 0.0 0.00 0.24 0.01 50 1011.8
20260510020346 67 323 0.0 0.0 0.00 0.25 0.01 50 1011.7
20260510015322 68 323 0.0 0.0 0.00 0.29 0.01 52 1011.5
20260510014347 68 323 0.0 0.0 0.00 0.31 0.01 53 1011.2
20260510013821 68 323 0.0 0.0 0.00 0.31 0.01 52 1011.1
20260510013347 68 323 0.0 0.0 0.00 0.31 0.01 50 1011.1
20260510012320 69 323 0.0 0.0 0.00 0.31 0.01 48 1011.1
20260510011347 70 323 0.0 0.0 0.00 0.31 0.01 47 1011.2
20260510010821 71 323 0.0 0.0 0.00 0.31 0.01 47 1011.2
20260510010347 72 323 0.0 0.0 0.00 0.31 0.01 47 1011.1
20260510005320 73 323 0.0 0.0 0.00 0.32 0.01 46 1011.1
20260510004348 74 323 0.0 0.0 0.00 0.32 0.01 46 1010.9
20260510003821 74 323 0.0 0.0 0.00 0.33 0.01 45 1010.8
20260510003347 75 323 0.0 0.0 0.00 0.33 0.01 43 1010.8
20260510002321 76 323 0.0 0.0 0.00 0.33 0.01 43 1010.7
20260510001346 77 323 0.0 0.0 0.00 0.33 0.01 42 1010.7
20260510000822 78 323 0.0 0.0 0.00 0.33 0.01 42 1010.7
20260510000349 78 323 0.0 0.0 0.00 0.33 0.01 41 1010.6
20260509235321 79 323 0.0 0.0 0.00 0.33 0.01 39 1010.6
20260509234346 80 323 0.0 0.0 0.00 0.33 0.01 37 1010.6
20260509233820 80 323 0.0 0.0 0.00 0.33 0.01 37 1010.5
20260509233346 80 323 0.0 0.0 0.00 0.33 0.01 37 1010.5
20260509232321 80 304 0.0 5.0 0.00 0.33 0.01 36 1010.5
20260509231347 81 315 0.0 0.0 0.00 0.33 0.01 36 1010.5
20260509230821 81 315 0.0 0.0 0.00 0.33 0.01 36 1010.5